Burnside, LA

6:23 AM CDT on September 25, 2016 (GMT -0500)
Gonzales

Weather History for KL38 - July, 2013

Change the Weather History Date:

Wednesday, July 31, 2013

  Actual Average (KBTR) Record (KBTR)
Temperature  
Mean Temperature 84 °F 83 °F  
Max Temperature 92 °F 93 °F 100 °F (1921)
Min Temperature 76 °F 74 °F 63 °F (1908)
Degree Days  
Heating Degree Days 0 0  
Month to date heating degree days 0  
Since 1 June heating degree days 0  
Since 1 July heating degree days 0  
Cooling Degree Days 19 18  
Month to date cooling degree days 556  
Year to date cooling degree days 1605  
Since 1 June cooling degree days 1040  
Growing Degree Days 34 (Base 50)    
Moisture  
Dew Point 76 °F    
Average Humidity 80    
Maximum Humidity 97    
Minimum Humidity 57    
Precipitation  
Precipitation 0.00 in 0.16 in 2.15 in (1980)
Month to date precipitation 4.96  
Year to date precipitation 35.89  
Snow  
Snow 0.00 in - - ()
Month to date snowfall  
Since 1 June snowfall  
Since 1 July snowfall  
Snow Depth -    
Sea Level Pressure  
Sea Level Pressure 30.05 in    
Wind  
Wind Speed 1 mph (WSW)    
Max Wind Speed 7 mph    
Max Gust Speed -    
Visibility 10 miles    
Events Rain    
T = Trace of Precipitation, MM = Missing Value Source: NWS Daily Summary

Daily Weather History Graph

Daily Weather History Graph

Search for Another Location

Airport or City:

Trip Planner

Search our weather history database for the weather conditions in past years. The results will help you decide how hot, cold, wet, or windy it might be!

Date:

Astronomy

Jul. 31, 2013 Rise Set
Actual Time 6:22 AM CDT 7:57 PM CDT
Civil Twilight 5:55 AM CDT 8:23 PM CDT
Nautical Twilight 5:24 AM CDT 8:54 PM CDT
Astronomical Twilight 4:51 AM CDT 9:27 PM CDT
Moon 1:17 AM CDT (7/31) 3:12 PM CDT (7/31)
Length of Visible Light 14h 27m
Length of Day
13h 35m
Waning Crescent, 31% of the Moon is Illuminated
Jul 31
Waning Crescent
Aug 6
New
Aug 14
First Quarter
Aug 20
Full
Aug 28
Last Quarter

Hourly Weather History & Observations

Time (CDT) Temp. Heat Index Dew Point Humidity Pressure Visibility Wind Dir Wind Speed Gust Speed Precip Events Conditions
12:15 AM 78.6 °F - 76.3 °F 92% 30.07 in 10.0 mi Calm Calm - N/A   Clear
12:35 AM 78.3 °F - 76.1 °F 93% 30.08 in 10.0 mi Calm Calm - N/A   Clear
12:55 AM 79.7 °F - 75.7 °F 88% 30.08 in 10.0 mi Calm Calm - N/A   Clear
1:15 AM 79.0 °F - 75.7 °F 90% 30.08 in 10.0 mi Calm Calm - N/A   Clear
1:55 AM 77.5 °F - 75.7 °F 94% 30.07 in 10.0 mi Calm Calm - N/A   Clear
2:15 AM 77.5 °F - 75.6 °F 94% 30.07 in 10.0 mi Calm Calm - N/A   Clear
2:35 AM 77.0 °F - 75.6 °F 95% 30.07 in 7.0 mi Calm Calm - N/A   Clear
2:55 AM 77.2 °F - 75.4 °F 94% 30.07 in 10.0 mi Calm Calm - N/A   Clear
3:15 AM 77.7 °F - 75.6 °F 93% 30.07 in 10.0 mi Calm Calm - N/A   Clear
3:35 AM 77.9 °F - 75.9 °F 94% 30.07 in 10.0 mi Calm Calm - N/A   Clear
3:55 AM 77.7 °F - 75.7 °F 94% 30.07 in 10.0 mi Calm Calm - N/A   Clear
4:15 AM 77.5 °F - 75.6 °F 94% 30.07 in 10.0 mi Calm Calm - N/A   Clear
4:35 AM 77.0 °F - 75.4 °F 95% 30.07 in 10.0 mi Calm Calm - N/A   Clear
4:55 AM 76.8 °F - 75.4 °F 95% 30.07 in 10.0 mi Calm Calm - N/A   Clear
5:15 AM 77.0 °F - 75.6 °F 95% 30.07 in 10.0 mi Calm Calm - N/A   Clear
5:35 AM 76.3 °F - 75.4 °F 97% 30.08 in 7.0 mi Calm Calm - N/A   Clear
5:55 AM 77.0 °F - 75.7 °F 96% 30.08 in 10.0 mi Calm Calm - N/A   Clear
6:15 AM 77.2 °F - 75.7 °F 95% 30.08 in 10.0 mi Calm Calm - N/A   Clear
6:35 AM 76.8 °F - 75.6 °F 96% 30.08 in 7.0 mi Calm Calm - N/A   Clear
6:55 AM 77.2 °F - 75.6 °F 95% 30.09 in 7.0 mi Calm Calm - N/A   Clear
7:15 AM 77.0 °F - 75.9 °F 96% 30.09 in 7.0 mi Calm Calm - N/A   Clear
7:35 AM 78.3 °F - 76.3 °F 94% 30.09 in 10.0 mi Calm Calm - N/A   Clear
7:55 AM 78.8 °F - 76.8 °F 94% 30.09 in 10.0 mi Calm Calm - N/A   Clear
8:15 AM 80.1 °F 85.5 °F 76.1 °F 88% 30.10 in 10.0 mi Calm Calm - N/A   Clear
8:35 AM 80.6 °F 86.6 °F 76.1 °F 86% 30.11 in 10.0 mi Calm Calm - N/A   Clear
8:55 AM 81.5 °F 89.2 °F 77.4 °F 87% 30.11 in 10.0 mi Calm Calm - N/A   Clear
9:15 AM 82.6 °F 90.5 °F 76.3 °F 81% 30.11 in 10.0 mi Calm Calm - N/A   Clear
9:35 AM 83.3 °F 91.8 °F 76.1 °F 79% 30.11 in 10.0 mi West 3.5 mph - N/A   Clear
9:55 AM 84.0 °F 92.9 °F 76.1 °F 77% 30.11 in 10.0 mi West 4.6 mph - N/A   Clear
10:15 AM 84.9 °F 94.5 °F 76.3 °F 75% 30.10 in 10.0 mi WSW 5.8 mph - N/A   Clear
10:35 AM 85.1 °F 94.5 °F 76.1 °F 74% 30.10 in 10.0 mi West 5.8 mph - N/A   Clear
10:55 AM 85.6 °F 94.6 °F 75.4 °F 71% 30.10 in 10.0 mi WSW 5.8 mph - N/A   Clear
11:15 AM 86.7 °F 95.9 °F 75.0 °F 68% 30.10 in 10.0 mi West 6.9 mph - N/A   Scattered Clouds
11:35 AM 87.4 °F 97.2 °F 75.2 °F 67% 30.10 in 10.0 mi WNW 4.6 mph - N/A   Scattered Clouds
11:55 AM 88.0 °F 97.5 °F 74.7 °F 65% 30.09 in 10.0 mi WSW 6.9 mph - N/A   Clear
12:15 PM 88.3 °F 98.9 °F 75.7 °F 66% 30.08 in 10.0 mi WSW 6.9 mph - N/A   Clear
12:35 PM 87.8 °F 98.1 °F 75.7 °F 67% 30.08 in 10.0 mi SW 6.9 mph - N/A   Clear
12:55 PM 88.2 °F 99.0 °F 76.1 °F 67% 30.07 in 10.0 mi SW 5.8 mph - N/A   Clear
1:15 PM 89.8 °F 101.5 °F 76.3 °F 64% 30.06 in 10.0 mi West 6.9 mph - N/A   Scattered Clouds
1:35 PM 89.2 °F 101.8 °F 76.8 °F 67% 30.05 in 10.0 mi West 4.6 mph - N/A   Mostly Cloudy
1:55 PM 90.1 °F 101.8 °F 76.1 °F 63% 30.05 in 10.0 mi SW 3.5 mph - N/A   Mostly Cloudy
2:15 PM 89.8 °F 100.3 °F 75.0 °F 62% 30.04 in 10.0 mi Calm Calm - N/A   Overcast
2:35 PM 90.7 °F 101.9 °F 75.4 °F 61% 30.03 in 10.0 mi West 5.8 mph - N/A   Mostly Cloudy
2:55 PM 90.7 °F 101.9 °F 75.7 °F 61% 30.03 in 10.0 mi West 3.5 mph - N/A   Scattered Clouds
3:15 PM 91.2 °F 103.3 °F 76.3 °F 61% 30.02 in 10.0 mi West 3.5 mph - N/A   Scattered Clouds
3:35 PM 90.1 °F 101.2 °F 75.4 °F 62% 30.02 in 10.0 mi WSW 3.5 mph - N/A   Mostly Cloudy
3:55 PM 91.9 °F 103.9 °F 75.7 °F 59% 30.01 in 10.0 mi WSW 3.5 mph - N/A   Mostly Cloudy
4:15 PM 91.6 °F 103.6 °F 75.7 °F 60% 30.00 in 10.0 mi Calm Calm - N/A   Scattered Clouds
4:35 PM 92.1 °F 103.0 °F 75.0 °F 57% 30.00 in 10.0 mi SW 3.5 mph - N/A   Scattered Clouds
4:55 PM 91.8 °F 102.1 °F 74.5 °F 57% 29.98 in 10.0 mi Calm Calm - N/A   Mostly Cloudy
5:15 PM 91.8 °F 103.4 °F 75.6 °F 59% 29.98 in 10.0 mi Calm Calm - N/A   Mostly Cloudy
5:35 PM 90.5 °F 101.5 °F 75.4 °F 61% 29.98 in 10.0 mi WSW 3.5 mph - N/A   Mostly Cloudy
5:55 PM 90.9 °F 101.8 °F 75.4 °F 60% 29.97 in 10.0 mi SSW 4.6 mph - N/A   Overcast
6:15 PM 90.0 °F 103.8 °F 77.7 °F 67% 29.97 in 10.0 mi SSW 5.8 mph - N/A   Overcast
6:35 PM 88.3 °F 101.1 °F 77.5 °F 70% 29.97 in 10.0 mi SSW 5.8 mph - N/A Rain Light Rain
6:55 PM 88.0 °F 99.6 °F 76.8 °F 69% 29.97 in 10.0 mi SSW 5.8 mph - N/A   Scattered Clouds
7:15 PM 86.9 °F 98.8 °F 77.2 °F 73% 29.98 in 10.0 mi SW 6.9 mph - N/A   Scattered Clouds
7:35 PM 86.0 °F 96.4 °F 76.6 °F 73% 29.99 in 10.0 mi Calm Calm - N/A   Scattered Clouds
7:55 PM 85.1 °F 95.8 °F 77.0 °F 77% 29.99 in 10.0 mi Calm Calm - N/A   Mostly Cloudy
8:15 PM 84.6 °F 95.1 °F 77.4 °F 79% 29.99 in 10.0 mi Calm Calm - N/A   Mostly Cloudy
8:35 PM 83.8 °F 94.3 °F 77.7 °F 82% 29.99 in 10.0 mi SSW 4.6 mph - N/A   Clear
8:55 PM 83.3 °F 93.1 °F 77.5 °F 83% 30.00 in 10.0 mi SSW 3.5 mph - N/A   Clear
9:15 PM 82.6 °F 91.7 °F 77.5 °F 85% 30.00 in 10.0 mi South 3.5 mph - N/A   Clear
9:35 PM 82.6 °F 92.0 °F 77.9 °F 86% 30.00 in 10.0 mi SSW 4.6 mph - N/A   Clear
9:55 PM 82.4 °F 91.2 °F 77.5 °F 85% 30.00 in 10.0 mi South 3.5 mph - N/A   Clear
10:15 PM 81.5 °F 89.5 °F 77.7 °F 88% 30.00 in 10.0 mi Calm Calm - N/A   Clear
10:35 PM 81.5 °F 89.7 °F 77.9 °F 89% 30.01 in 10.0 mi Calm Calm - N/A   Clear
10:55 PM 80.8 °F 87.8 °F 77.5 °F 90% 30.01 in 10.0 mi Calm Calm - N/A   Clear
11:15 PM 80.8 °F 87.8 °F 77.5 °F 90% 30.01 in 10.0 mi Calm Calm - N/A   Clear
11:35 PM 79.9 °F - 77.7 °F 93% 30.01 in 10.0 mi Calm Calm - N/A   Clear
11:55 PM 80.1 °F 86.1 °F 77.5 °F 92% 30.01 in 10.0 mi Calm Calm - N/A   Clear